Hourly Weather Roundup
Issued by NWS Central Illinois

Home | Current Version | Previous Version | Text Only | Print | Product List | Glossary On
Versions: 1 2 3 4 5 6 7 8 9 10 11 12 13 14 15 16 17 18 19 20 21 22 23 24 25 26 27 28 29 30 31 32 33 34 35 36 37 38 39 40 41 42 43 44 45 46 47 48 49 50
000
NZUS43 KILX 050910
HWRILX

AREA WEATHER ROUNDUP
NATIONAL WEATHER SERVICE, LINCOLN IL
400 AM CDT SAT SEP 05 2015


CITY           SKY/WX    TMP DP  RH WIND       PRES   REMARKS
BLOOMINGTON    CLEAR     71  65  81 SW6       30.07S
CHAMPAIGN      CLEAR     67  64  90 E5        30.08R
DANVILLE       CLEAR     64  64  97 CALM      30.06R
DECATUR        CLEAR     67  61  81 E7        30.07R
EFFINGHAM      CLEAR     68  64  88 CALM      30.07R
FLORA          CLEAR     67  66  94 CALM      30.06R
GALESBURG      PTCLDY    72  68  87 SE5       30.04S
JACKSONVILLE   CLEAR     73  69  88 CALM      30.04S
LACON          PTCLDY    72  67  84 CALM      30.04R
LAWRENCEVILLE  CLEAR     71  68  90 E3        30.07R
LITCHFIELD     CLEAR     70  65  85 CALM      30.06R
$$


CITY           SKY/WX    TMP DP  RH WIND       PRES   REMARKS
LINCOLN        CLEAR     68  64  85 CALM      30.04S
MACOMB         CLEAR     70  68  94 SE3       30.06R
MATTOON        CLEAR     70  65  84 SE7       30.06R
MT CARMEL AP   FAIR      68  64  88 CALM      30.06S
OLNEY-NOBLE AP CLEAR     68  66  94 CALM      30.06S
PARIS          CLEAR     67  66  97 E3        30.09R
PEORIA         PTCLDY    75  67  76 SW3       30.05R
PONTIAC        CLEAR     69  67  93 CALM      30.06R
RANTOUL        PTCLDY    69  66  92 SE3       30.08R
ROBINSON       CLEAR     68  66  95 CALM      30.08R
SPRINGFIELD    CLEAR     72  66  81 S5        30.05R
TAYLORVILLE    CLEAR     66  64  94 CALM      30.05S
$$

...REGIONAL REPORTS...


CITY           SKY/WX    TMP DP  RH WIND       PRES   REMARKS
CHICAGO O`HARE PTCLDY    70  67  90 CALM      30.05S
KANKAKEE       CLEAR     68  66  95 SE5       30.09R
MOLINE         MOCLDY    76  68  76 CALM      30.02R
MOUNT STERLING CLEAR     70  68  94 CALM      30.03S
MOUNT VERNON   CLEAR     66  61  82 N3        30.05R
PITTSFIELD     CLEAR     75  68  80 SW3       30.05S
QUINCY         CLEAR     72  69  90 S5        30.03S
ROCKFORD       MOCLDY    69  66  90 S3        30.06R
$$


CITY           SKY/WX    TMP DP  RH WIND       PRES   REMARKS
BURLINGTON     PTCLDY    71  69  93 S3        30.02S
CEDAR RAPIDS   MOCLDY    72  72 100 S3        30.01R
DES MOINES     PTCLDY    75  68  78 S7        29.98S
KIRKSVILLE     CLEAR     73  68  84 S3        30.04R
OTTUMWA        PTCLDY    71  69  93 S5        30.00R
ST LOUIS       CLEAR     78  67  68 SW8       30.04S HX  80
$$


CITY           SKY/WX    TMP DP  RH WIND       PRES   REMARKS
TERRE HAUTE    CLEAR     66  64  93 CALM      30.08R
EVANSVILLE     CLEAR     72  67  84 CALM      30.07R HAZE
INDIANAPOLIS   PTCLDY    70  64  81 CALM      30.09R
LAFAYETTE      CLEAR     66  63  90 CALM      30.08R
MADISON        PTCLDY    68  64  87 SE3       30.05S
MILWAUKEE      FOG       66  65  96 CALM      30.06R VSB 1/2
$$




USA.gov is the U.S. government's official web portal to all federal, state and local government web resources and services.